When you browse on this site, cookies collect data to enhance your experience and personalize the content and advertising you see.
Visit our Privacy Policy to learn more. By continuing to use the site, you agree to this use of cookies and data.
  • In Österreich
  • Länderverzeichnis
  • Für 7 Tage
  • Wassertemperatur
  • Satellitenkarten
  • Wetterkarte
  • News
  • Widgets
  • user-avatar
    Anmelden

    Stündliche Wetter Kabatnya

    Heute, 17 Februar, Sonntag

    Zeit Temperatur Niederschläge Wind Luftdruck Luftfeuchtigkeit
    00:00 0°C° 0 mm 3 m/S 742 mmHg 91%
    01:00 0°C° 0 mm 3 m/S 742 mmHg 91%
    02:00 0°C° 0 mm 3 m/S 742 mmHg 91%
    03:00 0°C° 0 mm 3 m/S 741 mmHg 90%
    04:00 0°C° 0 mm 3 m/S 741 mmHg 90%
    05:00 0°C° 0 mm 3 m/S 741 mmHg 90%
    06:00 -1°C° 0 mm 4 m/S 740 mmHg 89%
    07:00 -1°C° 0 mm 4 m/S 740 mmHg 88%
    08:00 -1°C° 0 mm 4 m/S 740 mmHg 85%
    09:00 +1°C° 0 mm 5 m/S 740 mmHg 78%
    10:00 +2°C° 0 mm 5 m/S 739 mmHg 71%
    11:00 +4°C° 0 mm 6 m/S 739 mmHg 63%
    12:00 +5°C° 0 mm 6 m/S 739 mmHg 63%
    13:00 +5°C° 0 mm 6 m/S 739 mmHg 62%
    14:00 +7°C° 0 mm 6 m/S 739 mmHg 62%
    15:00 +5°C° 0 mm 6 m/S 738 mmHg 66%
    16:00 +5°C° 0 mm 5 m/S 738 mmHg 71%
    17:00 +3°C° 0 mm 5 m/S 738 mmHg 75%
    18:00 +2°C° 0 mm 5 m/S 738 mmHg 79%
    19:00 +2°C° 0 mm 5 m/S 738 mmHg 82%
    20:00 +1°C° 0 mm 5 m/S 739 mmHg 85%
    21:00 +1°C° 0 mm 5 m/S 739 mmHg 87%
    22:00 +1°C° 0 mm 4 m/S 739 mmHg 89%
    23:00 +1°C° 0 mm 4 m/S 739 mmHg 91%

    Morgen, 18 Februar, Montag

    Zeit Temperatur Niederschläge Wind Luftdruck Luftfeuchtigkeit
    00:00 +1°C° 0 mm 4 m/S 740 mmHg 90%
    01:00 +1°C° 0 mm 4 m/S 740 mmHg 89%
    02:00 0°C° 0 mm 4 m/S 740 mmHg 88%
    03:00 0°C° 0 mm 4 m/S 740 mmHg 88%
    04:00 0°C° 0 mm 4 m/S 740 mmHg 89%
    05:00 0°C° 0 mm 4 m/S 740 mmHg 90%
    06:00 +1°C° 0 mm 3 m/S 741 mmHg 91%
    07:00 0°C° 0 mm 3 m/S 741 mmHg 92%
    08:00 0°C° 0 mm 3 m/S 741 mmHg 94%
    09:00 +1°C° 0 mm 3 m/S 741 mmHg 88%
    10:00 +2°C° 0 mm 3 m/S 742 mmHg 82%
    11:00 +3°C° 0 mm 4 m/S 742 mmHg 76%
    12:00 +3°C° 0 mm 4 m/S 742 mmHg 71%
    13:00 +4°C° 0 mm 3 m/S 742 mmHg 66%
    14:00 +4°C° 0 mm 3 m/S 742 mmHg 61%
    15:00 +4°C° 0 mm 3 m/S 742 mmHg 64%
    16:00 +4°C° 0 mm 2 m/S 742 mmHg 66%
    17:00 +3°C° 0 mm 2 m/S 742 mmHg 68%
    18:00 +2°C° 0 mm 2 m/S 742 mmHg 71%
    19:00 +1°C° 0 mm 2 m/S 743 mmHg 74%
    20:00 +2°C° 0 mm 1 m/S 743 mmHg 77%
    21:00 +1°C° 0 mm 1 m/S 743 mmHg 77%
    22:00 +1°C° 0 mm 1 m/S 743 mmHg 78%
    23:00 +1°C° 0 mm 1 m/S 743 mmHg 78%

    übermorgen, 19 Februar, Dienstag

    Zeit Temperatur Niederschläge Wind Luftdruck Luftfeuchtigkeit
    00:00 +1°C° 0 mm 1 m/S 744 mmHg 78%
    01:00 -2°C° 0 mm 2 m/S 744 mmHg 78%
    02:00 -2°C° 0 mm 2 m/S 744 mmHg 78%
    03:00 -2°C° 0 mm 2 m/S 744 mmHg 78%
    04:00 -2°C° 0 mm 2 m/S 744 mmHg 77%
    05:00 -2°C° 0 mm 2 m/S 743 mmHg 77%
    06:00 -2°C° 0 mm 2 m/S 744 mmHg 74%
    07:00 -2°C° 0 mm 2 m/S 744 mmHg 72%
    08:00 -2°C° 0 mm 3 m/S 744 mmHg 69%
    09:00 -1°C° 0 mm 3 m/S 744 mmHg 63%
    10:00 0°C° 0 mm 3 m/S 744 mmHg 56%
    11:00 0°C° 0 mm 4 m/S 744 mmHg 50%
    12:00 +1°C° 0 mm 4 m/S 743 mmHg 49%
    13:00 +1°C° 0 mm 4 m/S 743 mmHg 47%
    14:00 +3°C° 0 mm 4 m/S 742 mmHg 46%
    15:00 +1°C° 0 mm 4 m/S 742 mmHg 51%
    16:00 0°C° 0 mm 4 m/S 741 mmHg 55%
    17:00 +1°C° 0 mm 3 m/S 741 mmHg 60%
    18:00 -1°C° 0 mm 4 m/S 741 mmHg 62%
    19:00 -1°C° 0 mm 4 m/S 740 mmHg 64%
    20:00 -2°C° 0 mm 4 m/S 740 mmHg 66%
    21:00 -2°C° 0 mm 5 m/S 740 mmHg 67%
    22:00 -2°C° 0 mm 5 m/S 740 mmHg 69%
    23:00 -2°C° 0 mm 5 m/S 739 mmHg 70%

    20 Februar, Mittwoch

    Zeit Temperatur Niederschläge Wind Luftdruck Luftfeuchtigkeit
    00:00 -2°C° 0 mm 5 m/S 739 mmHg 75%
    01:00 -2°C° 0 mm 5 m/S 739 mmHg 79%
    02:00 -2°C° 0 mm 4 m/S 739 mmHg 83%
    03:00 -2°C° 0 mm 4 m/S 738 mmHg 86%
    04:00 -2°C° 0 mm 4 m/S 738 mmHg 89%
    05:00 -3°C° 0 mm 4 m/S 737 mmHg 92%
    06:00 -2°C° 0 mm 4 m/S 737 mmHg 93%
    07:00 -2°C° 0 mm 4 m/S 737 mmHg 94%
    08:00 -2°C° 0 mm 4 m/S 737 mmHg 95%
    09:00 0°C° 0 mm 4 m/S 738 mmHg 88%
    10:00 +1°C° 0 mm 4 m/S 738 mmHg 81%
    11:00 +4°C° 0 mm 4 m/S 738 mmHg 74%
    12:00 +4°C° 0 mm 4 m/S 738 mmHg 75%
    13:00 +3°C° 0 mm 5 m/S 738 mmHg 76%
    14:00 +5°C° 0 mm 5 m/S 737 mmHg 76%
    15:00 +4°C° 0 mm 4 m/S 737 mmHg 76%
    16:00 +3°C° 0 mm 4 m/S 737 mmHg 76%
    17:00 +3°C° 0 mm 3 m/S 737 mmHg 76%
    18:00 +2°C° 0 mm 3 m/S 738 mmHg 79%
    19:00 0°C° 0 mm 4 m/S 738 mmHg 81%
    20:00 0°C° 0 mm 4 m/S 738 mmHg 84%
    21:00 0°C° 0 mm 4 m/S 738 mmHg 86%
    22:00 -1°C° 0 mm 4 m/S 738 mmHg 87%
    23:00 -1°C° 0 mm 4 m/S 738 mmHg 89%

    21 Februar, Donnerstag

    Zeit Temperatur Niederschläge Wind Luftdruck Luftfeuchtigkeit
    00:00 -1°C° 0 mm 4 m/S 738 mmHg 88%
    01:00 -1°C° 0 mm 4 m/S 738 mmHg 88%
    02:00 -1°C° 0 mm 5 m/S 738 mmHg 87%
    03:00 -1°C° 0 mm 5 m/S 738 mmHg 85%
    04:00 -1°C° 0 mm 5 m/S 738 mmHg 82%
    05:00 -1°C° 0 mm 6 m/S 738 mmHg 80%
    06:00 -1°C° 0 mm 6 m/S 738 mmHg 80%
    07:00 -1°C° 0 mm 6 m/S 738 mmHg 80%
    08:00 -1°C° 0 mm 6 m/S 738 mmHg 80%
    09:00 -1°C° 0 mm 7 m/S 738 mmHg 76%
    10:00 0°C° 0 mm 8 m/S 738 mmHg 72%
    11:00 0°C° 0 mm 8 m/S 739 mmHg 68%
    12:00 +1°C° 0 mm 8 m/S 738 mmHg 65%
    13:00 +1°C° 0 mm 9 m/S 738 mmHg 62%
    14:00 +1°C° 0 mm 9 m/S 738 mmHg 58%
    15:00 +1°C° 0 mm 8 m/S 738 mmHg 58%
    16:00 0°C° 0 mm 7 m/S 738 mmHg 57%
    17:00 +1°C° 0 mm 6 m/S 739 mmHg 57%
    18:00 -1°C° 0 mm 6 m/S 739 mmHg 58%
    19:00 -1°C° 0 mm 5 m/S 740 mmHg 58%
    20:00 -2°C° 0 mm 5 m/S 740 mmHg 59%
    21:00 -3°C° 0 mm 4 m/S 741 mmHg 59%
    22:00 -3°C° 0 mm 4 m/S 741 mmHg 60%
    23:00 -4°C° 0 mm 3 m/S 741 mmHg 60%

    22 Februar, Freitag

    Zeit Temperatur Niederschläge Wind Luftdruck Luftfeuchtigkeit
    00:00 -4°C° 0 mm 3 m/S 742 mmHg 58%
    01:00 -4°C° 0 mm 3 m/S 742 mmHg 56%
    02:00 -4°C° 0 mm 3 m/S 742 mmHg 54%
    03:00 -4°C° 0 mm 3 m/S 742 mmHg 53%
    04:00 -4°C° 0 mm 3 m/S 742 mmHg 52%
    05:00 -4°C° 0 mm 3 m/S 742 mmHg 51%
    06:00 -4°C° 0 mm 3 m/S 742 mmHg 51%
    07:00 -4°C° 0 mm 4 m/S 742 mmHg 50%
    08:00 -4°C° 0 mm 4 m/S 742 mmHg 50%
    09:00 -4°C° 0 mm 4 m/S 743 mmHg 48%
    10:00 -4°C° 0 mm 4 m/S 743 mmHg 47%
    11:00 -4°C° 0 mm 5 m/S 743 mmHg 46%
    12:00 -4°C° 0 mm 5 m/S 743 mmHg 45%
    13:00 -4°C° 0 mm 6 m/S 743 mmHg 45%
    14:00 -4°C° 0 mm 6 m/S 743 mmHg 44%
    15:00 -4°C° 0 mm 6 m/S 744 mmHg 44%
    16:00 -5°C° 0 mm 6 m/S 744 mmHg 45%
    17:00 -7°C° 0 mm 7 m/S 744 mmHg 45%
    18:00 -7°C° 0 mm 7 m/S 745 mmHg 43%
    19:00 -8°C° 0 mm 7 m/S 746 mmHg 41%
    20:00 -8°C° 0 mm 7 m/S 747 mmHg 39%
    21:00 -9°C° 0 mm 7 m/S 747 mmHg 41%
    22:00 -9°C° 0 mm 7 m/S 748 mmHg 43%
    23:00 -9°C° 0 mm 7 m/S 748 mmHg 44%
    Mehr zeigen